Simultaneous Nadir Overpasses (SNOs) Predictions

Prediction of SNOs between NOAA-20 and AQUA Satellite Orbit:

Table of predicted SNOs for the next 14.0 days since TLE Epoch: 11/2/2024
Index Date (NOAA-20) Time (NOAA-20) Lat,Lon (NOAA-20) SZA (NOAA-20 ) Date (AQUA) Time (AQUA) Lat,Lon (AQUA) SZA (AQUA ) Distance(km) Time Diff (sec)
1 11/02/2024 03:45:05 81.32, 51.96 101.43 11/02/2024 03:45:35 81.32, 51.89 101.42 1.36 30
2 11/02/2024 04:35:49 -81.32,-140.51 78.60 11/02/2024 04:34:56 -81.32,-140.52 78.57 0.10 53
3 11/04/2024 14:57:29 81.32,-115.94 102.16 11/04/2024 14:57:48 81.32,-116.10 102.17 2.67 19
4 11/04/2024 15:48:13 -81.32, 51.61 77.87 11/04/2024 15:47:09 -81.32, 51.51 77.82 1.59 64
5 11/07/2024 02:09:53 81.32, 75.98 102.89 11/07/2024 02:09:57 81.33, 76.00 102.88 0.84 4
6 11/09/2024 12:31:33 -81.32, 99.97 76.34 11/09/2024 12:32:44 -81.31, 100.03 76.39 1.11 71
7 11/09/2024 13:22:17 81.32, -92.28 103.62 11/09/2024 13:22:03 81.32, -92.21 103.61 1.19 14
8 11/11/2024 23:43:54 -81.32, -67.64 75.72 11/11/2024 23:44:44 -81.32, -67.66 75.75 0.63 50
9 11/12/2024 00:34:38 81.32, 100.08 104.24 11/12/2024 00:34:03 81.33, 100.05 104.26 0.63 35
10 11/14/2024 10:56:17 -81.32, 124.18 75.06 11/14/2024 10:56:42 -81.32, 124.33 75.09 2.54 25



Historial Predications of SNOs between NOAA-20 and AQUA
